Weather in Lyapichev

Russia / Volgograd Oblast     48°29′43″N   43°29′46″E
temp.,
°C
wind,
m/s
gust,
m/s
humid.,
%
clouds,
%
prec.,
mm/h
press.,
hPa
HPBL,
m
6 august, fri
fri600:00+24e41036100 0.0 1014197
03:00+22e4113983 0.0 1014207
06:00+23e4103929 0.0 1015301
09:00+29ese67265 0.0 10141091
12:00+33e552228 0.0 10131973
15:00+34e55196 0.0 10112616
18:00+33ese561994 0.0 10102497
21:00+26e51127100 0.0 1011209
7 august, sat
sat700:00+25e51327100 0.0 1011263
03:00+24e61529100 0.0 1011327
06:00+24e61430100 0.0 1011386
09:00+30ese81021100 0.0 1010873
12:00+34ese7817100 0.0 10091761
15:00+36ese7816100 0.0 10082239
18:00+35ese6817100 0.0 10081638
21:00+31e7162112 0.0 1009414
8 august, sun
sun800:00+28e7162392 0.0 1009384
03:00+26e51325100 0.0 1010293
06:00+26e61425100 0.0 1010372
09:00+33ese91217100 0.0 1010991
12:00+36ese81015100 0.0 10102136
15:00+35se61118100 0.0 10102809
18:00+34e91415100 0.0 1009952
21:00+32e10181523 0.0 1009751
9 august, mon
mon900:00+30e10192037 0.0 1009617
03:00+28e7152592 0.0 1011579
06:00+27e71430100 0.0 1012701
09:00+31ese8926100 0.0 10121043
12:00+36se552273 0.0 10121914
15:00+37se55205 0.0 10112661
18:00+35ese87185 0.0 10111848
21:00+27e474083 0.5 101399
10 august, tue
tue1000:00+27ene5142836 0.0 1012388
03:00+27e51325100 0.0 1011326
06:00+25ne2326100 0.0 101174
09:00+30ese4518100 0.0 1011709
12:00+29se2323100 0.0 1011485
15:00+33nne222443 0.0 10101520
18:00+32sw22265 0.0 10091102
21:00+27ssw223565 0.0 100912